Regional Weather Roundup
Issued by NWS State College, PA

Home | Current Version | Previous Version | Text Only | Print | Product List | Glossary Off
Versions: 1 2 3 4 5 6 7 8 9 10 11 12 13 14 15 16 17 18 19 20 21 22 23 24 25 26 27 28 29 30 31 32 33 34 35 36 37 38 39 40 41 42 43 44 45 46 47 48 49 50

000
ASUS41 KCTP 301410
RWRCTP

REGIONAL WEATHER ROUNDUP
NATIONAL WEATHER SERVICE STATE COLLEGE PA
1000 AM EDT MON MAY 30 2016

Note: "fair" indicates few or no clouds below 12,000 feet with no
significant weather and/or obstructions to visibility.

* = STATION THAT DOES NOT REPORT PRECIPITATION /E.G. RAIN...SNOW...ETC/
    THUNDER OR FOG.

PAZ002>004-007>009-013>016-020>023-029>032-301500-
WESTERN PENNSYLVANIA

CITY           SKY/WX    TMP DP  RH WIND       PRES   REMARKS
ERIE           SUNNY     76  58  53 W6        30.01R
MEADVILLE      SUNNY     71  59  65 W6        30.04R
FRANKLIN*      MOSUNNY   70  59  68 N6        30.06S
NEW CASTLE     FAIR      73  61  65 NE7       30.04S
BEAVER COUNTY  NOT AVBL
BUTLER*        MOSUNNY   70  63  78 NW5       30.07R
PITTSBURGH INT PTSUNNY   71  61  70 W7        30.03R
PITTSBURGH     SUNNY     73  62  68 VRB5      30.03S
INDIANA*       MOSUNNY   72  66  83 VRB6      30.07F
LATROBE        MOSUNNY   73  66  78 SW8       30.05S
WASHINGTON CO* SUNNY     73  63  68 W6        30.05S
$$

PAZ004>006-010>012-017>019-024>028-033>037-041-042-045-046-049>053-301500-
CENTRAL PENNSYLVANIA

CITY           SKY/WX    TMP DP  RH WIND       PRES   REMARKS
BRADFORD       PTSUNNY   66  60  81 VRB7      30.05S
DUBOIS         SUNNY     70  62  76 W7        30.04S
CLEARFIELD     SUNNY     68  62  81 SW6       30.04F
JOHNSTOWN      SUNNY     68  58  70 W6        30.06F
ALTOONA        SUNNY     72  57  59 SW6       30.05S
STATE COLLEGE  SUNNY     73  61  64 SW6       30.03S
WILLIAMSPORT   SUNNY     75  62  64 N3        30.00F
SELINSGROVE    MOSUNNY   70  64  81 VRB5      30.02F
FT INDIANTOWN  PTSUNNY   70  65  85 NE1       30.02F
CAPITAL CITY   PTSUNNY   73  63  70 W7        30.02F
HARRISBURG     CLOUDY    72  64  76 W3        30.02F
YORK           CLOUDY    71  64  78 VRB3      30.03F
$$

PAZ038>040-043-044-047-048-054-055-060>062-067>071-301500-
EASTERN PENNSYLVANIA

CITY           SKY/WX    TMP DP  RH WIND       PRES   REMARKS
SCRANTON       CLOUDY    70  63  78 SW3       30.02F
MOUNT POCONO   NOT AVBL
ALLENTOWN      CLOUDY    72  66  83 W5        30.02F
QUAKERTOWN*    CLOUDY    72  68  88 CALM      30.04F
READING        PTSUNNY   73  64  73 W3        30.01F
LANCASTER      CLOUDY    72  64  76 CALM      30.03F
COATESVILLE    MOSUNNY   70  64  83 VRB5      30.05F
POTTSTOWN      CLOUDY    72  67  84 VRB3      30.04F
BLUE BELL      CLOUDY    70  68  94 W3        30.02F
DOYLESTOWN     PTSUNNY   73  67  81 SW5       30.02F
WILLOW GROVE   NOT AVBL
NORTH PHILA    CLOUDY    75  69  81 NW3       30.03F
PHILADELPHIA   CLOUDY    74  67  78 CALM      30.02F
$$



USA.gov is the U.S. government's official web portal to all federal, state and local government web resources and services.